Year,Month,Day,Hour,Minute,Value (Times are PST for temperature in C)
2012,03,11,00,00,5.40
2012,03,11,00,01,5.40
2012,03,11,00,02,5.40
2012,03,11,00,03,5.40
2012,03,11,00,04,5.40
2012,03,11,00,05,5.40
2012,03,11,00,06,5.40
2012,03,11,00,07,5.40
2012,03,11,00,08,5.40
2012,03,11,00,09,5.40
2012,03,11,00,10,5.40
2012,03,11,00,11,5.40
2012,03,11,00,12,5.40
2012,03,11,00,13,5.40
2012,03,11,00,14,5.40
2012,03,11,00,15,5.40
2012,03,11,00,16,5.40
2012,03,11,00,17,5.40
2012,03,11,00,18,5.40
2012,03,11,00,19,5.30
2012,03,11,00,20,5.30
2012,03,11,00,21,5.30
2012,03,11,00,22,5.30
2012,03,11,00,23,5.30
2012,03,11,00,24,5.30
2012,03,11,00,25,5.30
2012,03,11,00,26,5.30
2012,03,11,00,27,5.30
2012,03,11,00,28,5.30
2012,03,11,00,29,5.30
2012,03,11,00,30,5.30
2012,03,11,00,31,5.30
2012,03,11,00,32,5.30
2012,03,11,00,33,5.30
2012,03,11,00,34,5.30
2012,03,11,00,35,5.30
2012,03,11,00,36,5.30
2012,03,11,00,37,5.40
2012,03,11,00,38,5.40
2012,03,11,00,39,5.40
2012,03,11,00,40,5.40
2012,03,11,00,41,5.40
2012,03,11,00,42,5.40
2012,03,11,00,43,5.40
2012,03,11,00,44,5.40
2012,03,11,00,45,5.40
2012,03,11,00,46,5.40
2012,03,11,00,47,5.40
2012,03,11,00,48,5.40
2012,03,11,00,49,5.40
2012,03,11,00,50,5.40
2012,03,11,00,51,5.40
2012,03,11,00,52,5.40
2012,03,11,00,53,5.40
2012,03,11,00,54,5.30
2012,03,11,00,55,5.30
2012,03,11,00,56,5.30
2012,03,11,00,57,5.30
2012,03,11,00,58,5.30
2012,03,11,00,59,5.30
2012,03,11,01,00,5.30
2012,03,11,01,01,5.30
2012,03,11,01,02,5.30
2012,03,11,01,03,5.20
2012,03,11,01,04,5.20
2012,03,11,01,05,5.20
2012,03,11,01,06,5.20
2012,03,11,01,07,5.20
2012,03,11,01,08,5.20
2012,03,11,01,09,5.20
2012,03,11,01,10,5.20
2012,03,11,01,11,5.20
2012,03,11,01,12,5.20
2012,03,11,01,13,5.20
2012,03,11,01,14,5.20
2012,03,11,01,15,5.20
2012,03,11,01,16,5.20
2012,03,11,01,17,5.20
2012,03,11,01,18,5.20
2012,03,11,01,19,5.20
2012,03,11,01,20,5.20
2012,03,11,01,21,5.20
2012,03,11,01,22,5.20
2012,03,11,01,23,5.20
2012,03,11,01,24,5.20
2012,03,11,01,25,5.20
2012,03,11,01,26,5.20
2012,03,11,01,27,5.20
2012,03,11,01,28,5.20
2012,03,11,01,29,5.20
2012,03,11,01,30,5.20
2012,03,11,01,31,5.20
2012,03,11,01,32,5.20
2012,03,11,01,33,5.20
2012,03,11,01,34,5.20
2012,03,11,01,35,5.20
2012,03,11,01,36,5.20
2012,03,11,01,37,5.20
2012,03,11,01,38,5.20
2012,03,11,01,39,5.20
2012,03,11,01,40,5.10
2012,03,11,01,41,5.10
2012,03,11,01,42,5.10
2012,03,11,01,43,5.10
2012,03,11,01,44,5.10
2012,03,11,01,45,5.10
2012,03,11,01,46,5.10
2012,03,11,01,47,5.10
2012,03,11,01,48,5.10
2012,03,11,01,49,5.00
2012,03,11,01,50,5.00
2012,03,11,01,51,5.00
2012,03,11,01,52,5.00
2012,03,11,01,53,5.00
2012,03,11,01,54,4.90
2012,03,11,01,55,4.90
2012,03,11,01,56,4.90
2012,03,11,01,57,4.80
2012,03,11,01,58,4.80
2012,03,11,01,59,4.80
2012,03,11,03,00,4.80
2012,03,11,03,01,4.70
2012,03,11,03,02,4.70
2012,03,11,03,03,4.70
2012,03,11,03,04,4.70
2012,03,11,03,05,4.70
2012,03,11,03,06,4.70
2012,03,11,03,07,4.70
2012,03,11,03,08,4.70
2012,03,11,03,09,4.70
2012,03,11,03,10,4.70
2012,03,11,03,11,4.70
2012,03,11,03,12,4.80
2012,03,11,03,13,4.80
2012,03,11,03,14,4.80
2012,03,11,03,15,4.80
2012,03,11,03,16,4.70
2012,03,11,03,17,4.70
2012,03,11,03,18,4.60
2012,03,11,03,19,4.60
2012,03,11,03,20,4.60
2012,03,11,03,21,4.60
2012,03,11,03,22,4.60
2012,03,11,03,23,4.60
2012,03,11,03,24,4.60
2012,03,11,03,25,4.60
2012,03,11,03,26,4.60
2012,03,11,03,27,4.60
2012,03,11,03,28,4.60
2012,03,11,03,29,4.60
2012,03,11,03,30,4.60
2012,03,11,03,31,4.70
2012,03,11,03,32,4.70
2012,03,11,03,33,4.70
2012,03,11,03,34,4.70
2012,03,11,03,35,4.70
2012,03,11,03,36,4.70
2012,03,11,03,37,4.70
2012,03,11,03,38,4.70
2012,03,11,03,39,4.70
2012,03,11,03,40,4.70
2012,03,11,03,41,4.70
2012,03,11,03,42,4.70
2012,03,11,03,43,4.80
2012,03,11,03,44,4.80
2012,03,11,03,45,4.80
2012,03,11,03,46,4.80
2012,03,11,03,47,4.80
2012,03,11,03,48,4.80
2012,03,11,03,49,4.90
2012,03,11,03,50,4.90
2012,03,11,03,51,4.90
2012,03,11,03,52,4.80
2012,03,11,03,53,4.80
2012,03,11,03,54,4.80
2012,03,11,03,55,4.80
2012,03,11,03,56,4.80
2012,03,11,03,57,4.80
2012,03,11,03,58,4.80
2012,03,11,03,59,4.90
2012,03,11,04,00,4.90
2012,03,11,04,01,4.90
2012,03,11,04,02,4.90
2012,03,11,04,03,4.90
2012,03,11,04,04,4.90
2012,03,11,04,05,4.80
2012,03,11,04,06,4.80
2012,03,11,04,07,4.80
2012,03,11,04,08,4.80
2012,03,11,04,09,4.80
2012,03,11,04,10,4.80
2012,03,11,04,11,4.70
2012,03,11,04,12,4.70
2012,03,11,04,13,4.70
2012,03,11,04,14,4.70
2012,03,11,04,15,4.70
2012,03,11,04,16,4.70
2012,03,11,04,17,4.70
2012,03,11,04,18,4.70
2012,03,11,04,19,4.70
2012,03,11,04,20,4.70
2012,03,11,04,21,4.70
2012,03,11,04,22,4.70
2012,03,11,04,23,4.60
2012,03,11,04,24,4.60
2012,03,11,04,25,4.60
2012,03,11,04,26,4.60
2012,03,11,04,27,4.60
2012,03,11,04,28,4.60
2012,03,11,04,29,4.60
2012,03,11,04,30,4.60
2012,03,11,04,31,4.60
2012,03,11,04,32,4.60
2012,03,11,04,33,4.50
2012,03,11,04,34,4.50
2012,03,11,04,35,4.50
2012,03,11,04,36,4.50
2012,03,11,04,37,4.50
2012,03,11,04,38,4.50
2012,03,11,04,39,4.60
2012,03,11,04,40,4.60
2012,03,11,04,41,4.60
2012,03,11,04,42,4.60
2012,03,11,04,43,4.70
2012,03,11,04,44,4.70
2012,03,11,04,45,4.70
2012,03,11,04,46,4.70
2012,03,11,04,47,4.70
2012,03,11,04,48,4.80
2012,03,11,04,49,4.80
2012,03,11,04,50,4.80
2012,03,11,04,51,4.80
2012,03,11,04,52,4.80
2012,03,11,04,53,4.80
2012,03,11,04,54,4.70
2012,03,11,04,55,4.70
2012,03,11,04,56,4.60
2012,03,11,04,57,4.60
2012,03,11,04,58,4.60
2012,03,11,04,59,4.60
2012,03,11,05,00,4.60
2012,03,11,05,01,4.60
2012,03,11,05,02,4.60
2012,03,11,05,03,4.60
2012,03,11,05,04,4.50
2012,03,11,05,05,4.50
2012,03,11,05,06,4.40
2012,03,11,05,07,4.40
2012,03,11,05,08,4.40
2012,03,11,05,09,4.30
2012,03,11,05,10,4.30
2012,03,11,05,11,4.30
2012,03,11,05,12,4.30
2012,03,11,05,13,4.20
2012,03,11,05,14,4.10
2012,03,11,05,15,4.10
2012,03,11,05,16,4.10
2012,03,11,05,17,4.00
2012,03,11,05,18,4.00
2012,03,11,05,19,3.90
2012,03,11,05,20,3.80
2012,03,11,05,21,3.70
2012,03,11,05,22,3.70
2012,03,11,05,23,3.70
2012,03,11,05,24,3.70
2012,03,11,05,25,3.60
2012,03,11,05,26,3.60
2012,03,11,05,27,3.60
2012,03,11,05,28,3.60
2012,03,11,05,29,3.60
2012,03,11,05,30,3.50
2012,03,11,05,31,3.50
2012,03,11,05,32,3.50
2012,03,11,05,33,3.50
2012,03,11,05,34,3.60
2012,03,11,05,35,3.60
2012,03,11,05,36,3.60
2012,03,11,05,37,3.50
2012,03,11,05,38,3.50
2012,03,11,05,39,3.40
2012,03,11,05,40,3.40
2012,03,11,05,41,3.30
2012,03,11,05,42,3.30
2012,03,11,05,43,3.30
2012,03,11,05,44,3.30
2012,03,11,05,45,3.20
2012,03,11,05,46,3.20
2012,03,11,05,47,3.10
2012,03,11,05,48,3.00
2012,03,11,05,49,2.90
2012,03,11,05,50,2.80
2012,03,11,05,51,2.70
2012,03,11,05,52,2.70
2012,03,11,05,53,2.70
2012,03,11,05,54,2.70
2012,03,11,05,55,2.60
2012,03,11,05,56,2.60
2012,03,11,05,57,2.60
2012,03,11,05,58,2.60
2012,03,11,05,59,2.60
2012,03,11,06,00,2.50
2012,03,11,06,01,2.50
2012,03,11,06,02,2.50
2012,03,11,06,03,2.50
2012,03,11,06,04,2.50
2012,03,11,06,05,2.50
2012,03,11,06,06,2.40
2012,03,11,06,07,2.40
2012,03,11,06,08,2.40
2012,03,11,06,09,2.40
2012,03,11,06,10,2.40
2012,03,11,06,11,2.40
2012,03,11,06,12,2.40
2012,03,11,06,13,2.40
2012,03,11,06,14,2.30
2012,03,11,06,15,2.30
2012,03,11,06,16,2.30
2012,03,11,06,17,2.40
2012,03,11,06,18,2.40
2012,03,11,06,19,2.40
2012,03,11,06,20,2.50
2012,03,11,06,21,2.50
2012,03,11,06,22,2.40
2012,03,11,06,23,2.40
2012,03,11,06,24,2.40
2012,03,11,06,25,2.50
2012,03,11,06,26,2.50
2012,03,11,06,27,2.50
2012,03,11,06,28,2.50
2012,03,11,06,29,2.40
2012,03,11,06,30,2.40
2012,03,11,06,31,2.40
2012,03,11,06,32,2.40
2012,03,11,06,33,2.40
2012,03,11,06,34,2.40
2012,03,11,06,35,2.40
2012,03,11,06,36,2.40
2012,03,11,06,37,2.40
2012,03,11,06,38,2.40
2012,03,11,06,39,2.30
2012,03,11,06,40,2.20
2012,03,11,06,41,2.20
2012,03,11,06,42,2.20
2012,03,11,06,43,2.20
2012,03,11,06,44,2.10
2012,03,11,06,45,2.10
2012,03,11,06,46,2.10
2012,03,11,06,47,2.10
2012,03,11,06,48,2.10
2012,03,11,06,49,2.10
2012,03,11,06,50,2.10
2012,03,11,06,51,2.10
2012,03,11,06,52,2.10
2012,03,11,06,53,2.10
2012,03,11,06,54,2.10
2012,03,11,06,55,2.10
2012,03,11,06,56,2.10
2012,03,11,06,57,2.10
2012,03,11,06,58,2.10
2012,03,11,06,59,2.10
2012,03,11,07,00,2.10
2012,03,11,07,01,2.10
2012,03,11,07,02,2.10
2012,03,11,07,03,2.10
2012,03,11,07,04,2.10
2012,03,11,07,05,2.00
2012,03,11,07,06,2.00
2012,03,11,07,07,2.00
2012,03,11,07,08,2.00
2012,03,11,07,09,2.00
2012,03,11,07,10,2.00
2012,03,11,07,11,2.10
2012,03,11,07,12,2.10
2012,03,11,07,13,2.10
2012,03,11,07,14,2.20
2012,03,11,07,15,2.20
2012,03,11,07,16,2.20
2012,03,11,07,17,2.20
2012,03,11,07,18,2.20
2012,03,11,07,19,2.20
2012,03,11,07,20,2.30
2012,03,11,07,21,2.30
2012,03,11,07,22,2.30
2012,03,11,07,23,2.20
2012,03,11,07,24,2.10
2012,03,11,07,25,2.10
2012,03,11,07,26,2.10
2012,03,11,07,27,2.10
2012,03,11,07,28,2.20
2012,03,11,07,29,2.40
2012,03,11,07,30,2.50
2012,03,11,07,31,2.70
2012,03,11,07,32,2.70
2012,03,11,07,33,2.70
2012,03,11,07,34,2.70
2012,03,11,07,35,2.70
2012,03,11,07,36,2.70
2012,03,11,07,37,2.70
2012,03,11,07,38,2.70
2012,03,11,07,39,2.70
2012,03,11,07,40,2.70
2012,03,11,07,41,2.70
2012,03,11,07,42,2.70
2012,03,11,07,43,2.70
2012,03,11,07,44,2.70
2012,03,11,07,45,2.70
2012,03,11,07,46,2.80
2012,03,11,07,47,2.80
2012,03,11,07,48,2.80
2012,03,11,07,49,2.80
2012,03,11,07,50,2.70
2012,03,11,07,51,2.70
2012,03,11,07,52,2.70
2012,03,11,07,53,2.80
2012,03,11,07,54,2.80
2012,03,11,07,55,2.80
2012,03,11,07,56,2.80
2012,03,11,07,57,2.80
2012,03,11,07,58,2.70
2012,03,11,07,59,2.70
2012,03,11,08,00,2.70
2012,03,11,08,01,2.80
2012,03,11,08,02,3.00
2012,03,11,08,03,3.10
2012,03,11,08,04,3.30
2012,03,11,08,05,3.40
2012,03,11,08,06,3.40
2012,03,11,08,07,3.50
2012,03,11,08,08,3.50
2012,03,11,08,09,3.50
2012,03,11,08,10,3.60
2012,03,11,08,11,3.60
2012,03,11,08,12,3.70
2012,03,11,08,13,3.70
2012,03,11,08,14,3.70
2012,03,11,08,15,3.70
2012,03,11,08,16,3.70
2012,03,11,08,17,3.70
2012,03,11,08,18,3.70
2012,03,11,08,19,3.70
2012,03,11,08,20,3.70
2012,03,11,08,21,3.70
2012,03,11,08,22,3.70
2012,03,11,08,23,3.60
2012,03,11,08,24,3.60
2012,03,11,08,25,3.60
2012,03,11,08,26,3.60
2012,03,11,08,27,3.60
2012,03,11,08,28,3.60
2012,03,11,08,29,3.60
2012,03,11,08,30,3.60
2012,03,11,08,31,3.60
2012,03,11,08,32,3.60
2012,03,11,08,33,3.60
2012,03,11,08,34,3.60
2012,03,11,08,35,3.60
2012,03,11,08,36,3.60
2012,03,11,08,37,3.60
2012,03,11,08,38,3.60
2012,03,11,08,39,3.60
2012,03,11,08,40,3.50
2012,03,11,08,41,3.50
2012,03,11,08,42,3.40
2012,03,11,08,43,3.40
2012,03,11,08,44,3.40
2012,03,11,08,45,3.40
2012,03,11,08,46,3.30
2012,03,11,08,47,3.30
2012,03,11,08,48,3.30
2012,03,11,08,49,3.30
2012,03,11,08,50,3.30
2012,03,11,08,51,3.30
2012,03,11,08,52,3.30
2012,03,11,08,53,3.30
2012,03,11,08,54,3.30
2012,03,11,08,55,3.40
2012,03,11,08,56,3.40
2012,03,11,08,57,3.50
2012,03,11,08,58,3.50
2012,03,11,08,59,3.60
2012,03,11,09,00,3.60
2012,03,11,09,01,3.70
2012,03,11,09,02,3.70
2012,03,11,09,03,3.80
2012,03,11,09,04,3.80
2012,03,11,09,05,3.80
2012,03,11,09,06,3.90
2012,03,11,09,07,4.00
2012,03,11,09,08,4.10
2012,03,11,09,09,4.10
2012,03,11,09,10,4.20
2012,03,11,09,11,4.20
2012,03,11,09,12,4.30
2012,03,11,09,13,4.30
2012,03,11,09,14,4.30
2012,03,11,09,15,4.40
2012,03,11,09,16,4.40
2012,03,11,09,17,4.40
2012,03,11,09,18,4.50
2012,03,11,09,19,4.40
2012,03,11,09,20,4.40
2012,03,11,09,21,4.30
2012,03,11,09,22,4.30
2012,03,11,09,23,4.40
2012,03,11,09,24,4.40
2012,03,11,09,25,4.40
2012,03,11,09,26,4.50
2012,03,11,09,27,4.50
2012,03,11,09,28,4.60
2012,03,11,09,29,4.60
2012,03,11,09,30,4.80
2012,03,11,09,31,4.80
2012,03,11,09,32,4.90
2012,03,11,09,33,5.00
2012,03,11,09,34,5.10
2012,03,11,09,35,5.10
2012,03,11,09,36,5.20
2012,03,11,09,37,5.20
2012,03,11,09,38,5.30
2012,03,11,09,39,5.30
2012,03,11,09,40,5.30
2012,03,11,09,41,5.20
2012,03,11,09,42,5.20
2012,03,11,09,43,5.30
2012,03,11,09,44,5.30
2012,03,11,09,45,5.30
2012,03,11,09,46,5.30
2012,03,11,09,47,5.30
2012,03,11,09,48,5.30
2012,03,11,09,49,5.40
2012,03,11,09,50,5.40
2012,03,11,09,51,5.40
2012,03,11,09,52,5.40
2012,03,11,09,53,5.40
2012,03,11,09,54,5.40
2012,03,11,09,55,5.40
2012,03,11,09,56,5.30
2012,03,11,09,57,5.30
2012,03,11,09,58,5.30
2012,03,11,09,59,5.30
2012,03,11,10,00,5.30
2012,03,11,10,01,5.40
2012,03,11,10,02,5.40
2012,03,11,10,03,5.40
2012,03,11,10,04,5.40
2012,03,11,10,05,5.30
2012,03,11,10,06,5.30
2012,03,11,10,07,5.30
2012,03,11,10,08,5.40
2012,03,11,10,09,5.40
2012,03,11,10,10,5.40
2012,03,11,10,11,5.40
2012,03,11,10,12,5.40
2012,03,11,10,13,5.40
2012,03,11,10,14,5.40
2012,03,11,10,15,5.40
2012,03,11,10,16,5.40
2012,03,11,10,17,5.40
2012,03,11,10,18,5.30
2012,03,11,10,19,5.30
2012,03,11,10,20,5.30
2012,03,11,10,21,5.40
2012,03,11,10,22,5.40
2012,03,11,10,23,5.40
2012,03,11,10,24,5.40
2012,03,11,10,25,5.50
2012,03,11,10,26,5.50
2012,03,11,10,27,5.50
2012,03,11,10,28,5.60
2012,03,11,10,29,5.60
2012,03,11,10,30,5.70
2012,03,11,10,31,5.70
2012,03,11,10,32,5.80
2012,03,11,10,33,5.80
2012,03,11,10,34,5.80
2012,03,11,10,35,5.80
2012,03,11,10,36,5.70
2012,03,11,10,37,5.60
2012,03,11,10,38,5.50
2012,03,11,10,39,5.50
2012,03,11,10,40,5.40
2012,03,11,10,41,5.30
2012,03,11,10,42,5.30
2012,03,11,10,43,5.30
2012,03,11,10,44,5.30
2012,03,11,10,45,5.30
2012,03,11,10,46,5.30
2012,03,11,10,47,5.40
2012,03,11,10,48,5.40
2012,03,11,10,49,5.40
2012,03,11,10,50,5.50
2012,03,11,10,51,5.50
2012,03,11,10,52,5.50
2012,03,11,10,53,5.60
2012,03,11,10,54,5.60
2012,03,11,10,55,5.70
2012,03,11,10,56,5.70
2012,03,11,10,57,5.70
2012,03,11,10,58,5.70
2012,03,11,10,59,5.80
2012,03,11,11,00,5.80
2012,03,11,11,01,5.90
2012,03,11,11,02,6.00
2012,03,11,11,03,6.10
2012,03,11,11,04,6.10
2012,03,11,11,05,6.20
2012,03,11,11,06,6.20
2012,03,11,11,07,6.30
2012,03,11,11,08,6.30
2012,03,11,11,09,6.20
2012,03,11,11,10,6.20
2012,03,11,11,11,6.20
2012,03,11,11,12,6.20
2012,03,11,11,13,6.20
2012,03,11,11,14,6.10
2012,03,11,11,15,6.10
2012,03,11,11,16,6.10
2012,03,11,11,17,6.10
2012,03,11,11,18,6.10
2012,03,11,11,19,6.10
2012,03,11,11,20,6.20
2012,03,11,11,21,6.20
2012,03,11,11,22,6.20
2012,03,11,11,23,6.30
2012,03,11,11,24,6.40
2012,03,11,11,25,6.50
2012,03,11,11,26,6.50
2012,03,11,11,27,6.60
2012,03,11,11,28,6.60
2012,03,11,11,29,6.70
2012,03,11,11,30,6.70
2012,03,11,11,31,6.70
2012,03,11,11,32,6.60
2012,03,11,11,33,6.70
2012,03,11,11,34,6.60
2012,03,11,11,35,6.70
2012,03,11,11,36,6.70
2012,03,11,11,37,6.70
2012,03,11,11,38,6.80
2012,03,11,11,39,6.80
2012,03,11,11,40,7.00
2012,03,11,11,41,7.10
2012,03,11,11,42,7.20
2012,03,11,11,43,7.20
2012,03,11,11,44,7.20
2012,03,11,11,45,7.10
2012,03,11,11,46,7.10
2012,03,11,11,47,7.10
2012,03,11,11,48,7.10
2012,03,11,11,49,7.00
2012,03,11,11,50,7.00
2012,03,11,11,51,7.10
2012,03,11,11,52,7.10
2012,03,11,11,53,6.90
2012,03,11,11,54,6.80
2012,03,11,11,55,6.80
2012,03,11,11,56,6.80
2012,03,11,11,57,6.90
2012,03,11,11,58,6.90
2012,03,11,11,59,6.80
2012,03,11,12,00,6.90
2012,03,11,12,01,6.90
2012,03,11,12,02,7.00
2012,03,11,12,03,7.00
2012,03,11,12,04,7.10
2012,03,11,12,05,7.20
2012,03,11,12,06,7.10
2012,03,11,12,07,7.10
2012,03,11,12,08,7.00
2012,03,11,12,09,7.00
2012,03,11,12,10,7.00
2012,03,11,12,11,6.90
2012,03,11,12,12,6.90
2012,03,11,12,13,6.90
2012,03,11,12,14,6.90
2012,03,11,12,15,6.90
2012,03,11,12,16,7.00
2012,03,11,12,17,7.00
2012,03,11,12,18,7.10
2012,03,11,12,19,7.20
2012,03,11,12,20,7.20
2012,03,11,12,21,7.30
2012,03,11,12,22,7.40
2012,03,11,12,23,7.50
2012,03,11,12,24,7.60
2012,03,11,12,25,7.70
2012,03,11,12,26,7.70
2012,03,11,12,27,7.70
2012,03,11,12,28,7.80
2012,03,11,12,29,7.80
2012,03,11,12,30,7.80
2012,03,11,12,31,7.70
2012,03,11,12,32,7.70
2012,03,11,12,33,7.60
2012,03,11,12,34,7.50
2012,03,11,12,35,7.30
2012,03,11,12,36,7.10
2012,03,11,12,37,6.90
2012,03,11,12,38,6.70
2012,03,11,12,39,6.50
2012,03,11,12,40,6.30
2012,03,11,12,41,6.20
2012,03,11,12,42,6.10
2012,03,11,12,43,5.90
2012,03,11,12,44,5.80
2012,03,11,12,45,5.80
2012,03,11,12,46,5.80
2012,03,11,12,47,5.70
2012,03,11,12,48,5.70
2012,03,11,12,49,5.60
2012,03,11,12,50,5.50
2012,03,11,12,51,5.40
2012,03,11,12,52,5.30
2012,03,11,12,53,5.30
2012,03,11,12,54,5.30
2012,03,11,12,55,5.20
2012,03,11,12,56,5.10
2012,03,11,12,57,5.00
2012,03,11,12,58,4.80
2012,03,11,12,59,4.70
2012,03,11,13,00,4.50
2012,03,11,13,01,4.40
2012,03,11,13,02,4.20
2012,03,11,13,03,4.20
2012,03,11,13,04,4.00
2012,03,11,13,05,3.80
2012,03,11,13,06,3.50
2012,03,11,13,07,3.20
2012,03,11,13,08,2.90
2012,03,11,13,09,2.60
2012,03,11,13,10,2.40
2012,03,11,13,11,2.20
2012,03,11,13,12,2.10
2012,03,11,13,13,1.90
2012,03,11,13,14,1.80
2012,03,11,13,15,1.70
2012,03,11,13,16,1.60
2012,03,11,13,17,1.60
2012,03,11,13,18,1.60
2012,03,11,13,19,1.60
2012,03,11,13,20,1.60
2012,03,11,13,21,1.60
2012,03,11,13,22,1.70
2012,03,11,13,23,1.70
2012,03,11,13,24,1.70
2012,03,11,13,25,1.80
2012,03,11,13,26,1.90
2012,03,11,13,27,2.00
2012,03,11,13,28,2.20
2012,03,11,13,29,2.30
2012,03,11,13,30,2.40
2012,03,11,13,31,2.60
2012,03,11,13,32,2.70
2012,03,11,13,33,2.80
2012,03,11,13,34,2.80
2012,03,11,13,35,2.90
2012,03,11,13,36,3.00
2012,03,11,13,37,3.10
2012,03,11,13,38,3.20
2012,03,11,13,39,3.20
2012,03,11,13,40,3.30
2012,03,11,13,41,3.40
2012,03,11,13,42,3.50
2012,03,11,13,43,3.70
2012,03,11,13,44,3.90
2012,03,11,13,45,4.00
2012,03,11,13,46,4.00
2012,03,11,13,47,4.10
2012,03,11,13,48,4.30
2012,03,11,13,49,4.40
2012,03,11,13,50,4.60
2012,03,11,13,51,4.70
2012,03,11,13,52,4.80
2012,03,11,13,53,4.90
2012,03,11,13,54,5.00
2012,03,11,13,55,5.10
2012,03,11,13,56,5.20
2012,03,11,13,57,5.30
2012,03,11,13,58,5.50
2012,03,11,13,59,5.60
2012,03,11,14,00,5.80
2012,03,11,14,01,6.00
2012,03,11,14,02,6.00
2012,03,11,14,03,5.90
2012,03,11,14,04,5.90
2012,03,11,14,05,5.90
2012,03,11,14,06,5.80
2012,03,11,14,07,5.80
2012,03,11,14,08,5.70
2012,03,11,14,09,5.60
2012,03,11,14,10,5.60
2012,03,11,14,11,5.50
2012,03,11,14,12,5.40
2012,03,11,14,13,5.40
2012,03,11,14,14,5.30
2012,03,11,14,15,5.20
2012,03,11,14,16,5.10
2012,03,11,14,17,5.10
2012,03,11,14,18,5.00
2012,03,11,14,19,5.00
2012,03,11,14,20,4.90
2012,03,11,14,21,4.90
2012,03,11,14,22,4.80
2012,03,11,14,23,4.80
2012,03,11,14,24,4.80
2012,03,11,14,25,4.70
2012,03,11,14,26,4.70
2012,03,11,14,27,4.60
2012,03,11,14,28,4.60
2012,03,11,14,29,4.60
2012,03,11,14,30,4.50
2012,03,11,14,31,4.40
2012,03,11,14,32,4.30
2012,03,11,14,33,4.10
2012,03,11,14,34,4.10
2012,03,11,14,35,4.00
2012,03,11,14,36,3.90
2012,03,11,14,37,3.90
2012,03,11,14,38,3.90
2012,03,11,14,39,3.90
2012,03,11,14,40,3.80
2012,03,11,14,41,3.80
2012,03,11,14,42,3.80
2012,03,11,14,43,3.80
2012,03,11,14,44,3.80
2012,03,11,14,45,3.80
2012,03,11,14,46,3.80
2012,03,11,14,47,3.80
2012,03,11,14,48,3.90
2012,03,11,14,49,3.90
2012,03,11,14,50,4.00
2012,03,11,14,51,4.00
2012,03,11,14,52,4.10
2012,03,11,14,53,4.10
2012,03,11,14,54,4.20
2012,03,11,14,55,4.20
2012,03,11,14,56,4.30
2012,03,11,14,57,4.40
2012,03,11,14,58,4.40
2012,03,11,14,59,4.40
2012,03,11,15,00,4.40
2012,03,11,15,01,4.40
2012,03,11,15,02,4.40
2012,03,11,15,03,4.40
2012,03,11,15,04,4.50
2012,03,11,15,05,4.60
2012,03,11,15,06,4.70
2012,03,11,15,07,4.70
2012,03,11,15,08,4.80
2012,03,11,15,09,4.90
2012,03,11,15,10,4.90
2012,03,11,15,11,4.90
2012,03,11,15,12,5.00
2012,03,11,15,13,5.00
2012,03,11,15,14,5.10
2012,03,11,15,15,5.00
2012,03,11,15,16,4.80
2012,03,11,15,17,4.70
2012,03,11,15,18,4.70
2012,03,11,15,19,4.60
2012,03,11,15,20,4.50
2012,03,11,15,21,4.40
2012,03,11,15,22,4.30
2012,03,11,15,23,4.30
2012,03,11,15,24,4.30
2012,03,11,15,25,4.40
2012,03,11,15,26,4.40
2012,03,11,15,27,4.50
2012,03,11,15,28,4.50
2012,03,11,15,29,4.60
2012,03,11,15,30,4.60
2012,03,11,15,31,4.70
2012,03,11,15,32,4.70
2012,03,11,15,33,4.80
2012,03,11,15,34,4.90
2012,03,11,15,35,4.90
2012,03,11,15,36,5.00
2012,03,11,15,37,5.10
2012,03,11,15,38,5.20
2012,03,11,15,39,5.30
2012,03,11,15,40,5.40
2012,03,11,15,41,5.40
2012,03,11,15,42,5.40
2012,03,11,15,43,5.50
2012,03,11,15,44,5.50
2012,03,11,15,45,5.60
2012,03,11,15,46,5.60
2012,03,11,15,47,5.50
2012,03,11,15,48,5.50
2012,03,11,15,49,5.60
2012,03,11,15,50,5.60
2012,03,11,15,51,5.70
2012,03,11,15,52,5.70
2012,03,11,15,53,5.80
2012,03,11,15,54,5.90
2012,03,11,15,55,6.00
2012,03,11,15,56,6.10
2012,03,11,15,57,6.20
2012,03,11,15,58,6.20
2012,03,11,15,59,6.10
2012,03,11,16,00,6.00
2012,03,11,16,01,6.00
2012,03,11,16,02,6.00
2012,03,11,16,03,5.90
2012,03,11,16,04,5.90
2012,03,11,16,05,5.90
2012,03,11,16,06,5.90
2012,03,11,16,07,5.90
2012,03,11,16,08,5.90
2012,03,11,16,09,5.90
2012,03,11,16,10,6.00
2012,03,11,16,11,6.00
2012,03,11,16,12,6.00
2012,03,11,16,13,6.00
2012,03,11,16,14,5.90
2012,03,11,16,15,5.90
2012,03,11,16,16,5.90
2012,03,11,16,17,5.90
2012,03,11,16,18,5.80
2012,03,11,16,19,5.90
2012,03,11,16,20,5.90
2012,03,11,16,21,5.90
2012,03,11,16,22,6.00
2012,03,11,16,23,6.00
2012,03,11,16,24,6.00
2012,03,11,16,25,6.10
2012,03,11,16,26,6.10
2012,03,11,16,27,6.10
2012,03,11,16,28,6.10
2012,03,11,16,29,6.00
2012,03,11,16,30,5.90
2012,03,11,16,31,5.80
2012,03,11,16,32,5.70
2012,03,11,16,33,5.60
2012,03,11,16,34,5.50
2012,03,11,16,35,5.40
2012,03,11,16,36,5.30
2012,03,11,16,37,5.20
2012,03,11,16,38,5.20
2012,03,11,16,39,5.10
2012,03,11,16,40,5.10
2012,03,11,16,41,5.00
2012,03,11,16,42,4.90
2012,03,11,16,43,4.80
2012,03,11,16,44,4.60
2012,03,11,16,45,4.30
2012,03,11,16,46,4.10
2012,03,11,16,47,3.90
2012,03,11,16,48,3.80
2012,03,11,16,49,3.70
2012,03,11,16,50,3.70
2012,03,11,16,51,3.70
2012,03,11,16,52,3.70
2012,03,11,16,53,3.70
2012,03,11,16,54,3.70
2012,03,11,16,55,3.60
2012,03,11,16,56,3.70
2012,03,11,16,57,3.70
2012,03,11,16,58,3.70
2012,03,11,16,59,3.70
2012,03,11,17,00,3.70
2012,03,11,17,01,3.70
2012,03,11,17,02,3.80
2012,03,11,17,03,3.80
2012,03,11,17,04,3.80
2012,03,11,17,05,3.90
2012,03,11,17,06,3.90
2012,03,11,17,07,3.90
2012,03,11,17,08,4.00
2012,03,11,17,09,4.00
2012,03,11,17,10,4.10
2012,03,11,17,11,4.10
2012,03,11,17,12,4.10
2012,03,11,17,13,4.10
2012,03,11,17,14,4.10
2012,03,11,17,15,4.00
2012,03,11,17,16,3.90
2012,03,11,17,17,3.90
2012,03,11,17,18,3.80
2012,03,11,17,19,3.80
2012,03,11,17,20,3.70
2012,03,11,17,21,3.70
2012,03,11,17,22,3.70
2012,03,11,17,23,3.70
2012,03,11,17,24,3.60
2012,03,11,17,25,3.70
2012,03,11,17,26,3.70
2012,03,11,17,27,3.70
2012,03,11,17,28,3.80
2012,03,11,17,29,3.80
2012,03,11,17,30,3.80
2012,03,11,17,31,3.70
2012,03,11,17,32,3.70
2012,03,11,17,33,3.70
2012,03,11,17,34,3.60
2012,03,11,17,35,3.60
2012,03,11,17,36,3.60
2012,03,11,17,37,3.50
2012,03,11,17,38,3.50
2012,03,11,17,39,3.50
2012,03,11,17,40,3.50
2012,03,11,17,41,3.50
2012,03,11,17,42,3.50
2012,03,11,17,43,3.50
2012,03,11,17,44,3.50
2012,03,11,17,45,3.50
2012,03,11,17,46,3.50
2012,03,11,17,47,3.50
2012,03,11,17,48,3.50
2012,03,11,17,49,3.60
2012,03,11,17,50,3.60
2012,03,11,17,51,3.60
2012,03,11,17,52,3.60
2012,03,11,17,53,3.60
2012,03,11,17,54,3.70
2012,03,11,17,55,3.70
2012,03,11,17,56,3.70
2012,03,11,17,57,3.70
2012,03,11,17,58,3.70
2012,03,11,17,59,3.80
2012,03,11,18,00,3.80
2012,03,11,18,01,3.80
2012,03,11,18,02,3.80
2012,03,11,18,03,3.80
2012,03,11,18,04,3.90
2012,03,11,18,05,3.90
2012,03,11,18,06,4.00
2012,03,11,18,07,4.00
2012,03,11,18,08,4.00
2012,03,11,18,09,4.00
2012,03,11,18,10,4.00
2012,03,11,18,11,4.00
2012,03,11,18,12,4.00
2012,03,11,18,13,4.00
2012,03,11,18,14,4.00
2012,03,11,18,15,4.00
2012,03,11,18,16,4.00
2012,03,11,18,17,4.00
2012,03,11,18,18,4.00
2012,03,11,18,19,4.00
2012,03,11,18,20,4.00
2012,03,11,18,21,4.00
2012,03,11,18,22,4.00
2012,03,11,18,23,4.00
2012,03,11,18,24,4.00
2012,03,11,18,25,4.00
2012,03,11,18,26,3.90
2012,03,11,18,27,3.90
2012,03,11,18,28,3.90
2012,03,11,18,29,3.90
2012,03,11,18,30,3.90
2012,03,11,18,31,3.90
2012,03,11,18,32,3.90
2012,03,11,18,33,3.90
2012,03,11,18,34,3.90
2012,03,11,18,35,3.90
2012,03,11,18,36,3.90
2012,03,11,18,37,3.90
2012,03,11,18,38,3.90
2012,03,11,18,39,3.90
2012,03,11,18,40,3.90
2012,03,11,18,41,3.90
2012,03,11,18,42,3.90
2012,03,11,18,43,3.90
2012,03,11,18,44,3.90
2012,03,11,18,45,3.90
2012,03,11,18,46,3.90
2012,03,11,18,47,3.90
2012,03,11,18,48,3.90
2012,03,11,18,49,3.80
2012,03,11,18,50,3.80
2012,03,11,18,51,3.70
2012,03,11,18,52,3.60
2012,03,11,18,53,3.50
2012,03,11,18,54,3.40
2012,03,11,18,55,3.20
2012,03,11,18,56,3.10
2012,03,11,18,57,3.00
2012,03,11,18,58,3.00
2012,03,11,18,59,2.90
2012,03,11,19,00,2.80
2012,03,11,19,01,2.70
2012,03,11,19,02,2.70
2012,03,11,19,03,2.60
2012,03,11,19,04,2.60
2012,03,11,19,05,2.60
2012,03,11,19,06,2.50